This demonstration page uses our WeatherBlox Daily Observations layout. Learn more.

Left ArrowRight Arrow

Hourly Observations for August 29, 2016

Temp ( °F °C ) Dew Point ( °F °C ) Humidity (%) Winds ( mph kmh ) Pressure ( in mb ) Visibility ( mi km ) Precip ( " mm )
12:14 am 00:14 Clear 72 22 68 20 88 88 S 3 6 30.18 1022 10 16.0934 N/A
12:35 am 00:35 Clear 70 21 66 19 88 88 NE 5 7 30.18 1022 10 16.0934 N/A
12:54 am 00:54 Clear 68 20 68 20 100 100 N 6 9 30.18 1022 10 16.0934 N/A
1:14 am 01:14 Clear 68 20 66 19 94 94 N 5 7 30.18 1022 7 11.26538 N/A
1:35 am 01:35 Clear 68 20 66 19 94 94 NNW 5 7 30.18 1022 10 16.0934 N/A
1:54 am 01:54 Clear 68 20 66 19 94 94 ESE 3 6 30.18 1022 7 11.26538 N/A
2:14 am 02:14 Clear 66 19 66 19 100 100 Calm 30.18 1022 7 11.26538 N/A
2:35 am 02:35 Clear 66 19 66 19 100 100 Calm 30.18 1022 5 8.0467 N/A
2:54 am 02:54 Clear 66 19 64 18 94 94 NE 3 6 30.18 1022 7 11.26538 N/A
3:14 am 03:14 Clear 66 19 66 19 100 100 Calm 30.18 1022 5 8.0467 N/A
3:35 am 03:35 Clear 66 19 66 19 100 100 NE 3 6 30.18 1022 7 11.26538 N/A
3:54 am 03:54 Clear 66 19 64 18 94 94 Calm 30.18 1022 5 8.0467 N/A
4:15 am 04:15 Clear 66 19 66 19 100 100 NE 3 6 30.18 1022 5 8.0467 N/A
4:34 am 04:34 Clear 66 19 64 18 94 94 Calm 30.18 1022 5 8.0467 N/A
4:54 am 04:54 Clear 66 19 64 18 94 94 Calm 30.18 1022 4 6.43736 N/A
5:15 am 05:15 Clear 66 19 66 19 100 100 W 6 9 30.18 1022 4 6.43736 N/A
5:34 am 05:34 Clear 66 19 66 19 100 100 E 8 13 30.18 1022 5 8.0467 N/A
5:54 am 05:54 Clear 66 19 66 19 100 100 ESE 3 6 30.18 1022 5 8.0467 N/A
6:15 am 06:15 Clear 66 19 66 19 100 100 ESE 5 7 30.18 1022 5 8.0467 N/A
6:34 am 06:34 Clear 66 19 66 19 100 100 E 6 9 30.18 1022 5 8.0467 N/A
6:54 am 06:54 Clear 66 19 66 19 100 100 ESE 5 7 30.18 1022 7 11.26538 N/A
7:15 am 07:15 Sunny 66 19 66 19 100 100 Calm 30.18 1022 7 11.26538 N/A
7:34 am 07:34 Sunny 66 19 66 19 100 100 Calm 30.21 1023 7 11.26538 N/A
7:55 am 07:55 Sunny 68 20 66 19 94 94 Calm 30.21 1023 5 8.0467 N/A
8:14 am 08:14 Sunny 68 20 68 20 100 100 Calm 30.21 1023 7 11.26538 N/A
8:34 am 08:34 Sunny 70 21 68 20 94 94 Calm 30.21 1023 10 16.0934 N/A
8:55 am 08:55 Sunny 72 22 68 20 88 88 Calm 30.21 1023 10 16.0934 N/A
9:14 am 09:14 Sunny 73 23 70 21 89 89 Calm 30.18 1022 10 16.0934 N/A
9:34 am 09:34 Sunny 75 24 70 21 83 83 E 3 6 30.18 1022 10 16.0934 N/A
9:55 am 09:55 Sunny 75 24 70 21 83 83 ESE 5 7 30.18 1022 10 16.0934 N/A
10:14 am 10:14 Sunny 77 25 70 21 79 79 ESE 5 7 30.18 1022 10 16.0934 N/A
10:34 am 10:34 Sunny 79 26 72 22 79 79 ESE 5 7 30.18 1022 10 16.0934 N/A
10:55 am 10:55 Sunny 79 26 70 21 74 74 E 3 6 30.21 1023 10 16.0934 N/A
11:14 am 11:14 Sunny 81 27 70 21 70 70 Calm 30.21 1023 10 16.0934 N/A
11:34 am 11:34 Sunny 81 27 70 21 70 70 E 6 9 30.21 1023 10 16.0934 N/A
11:55 am 11:55 Sunny 81 27 72 22 74 74 ESE 5 7 30.21 1023 10 16.0934 N/A
12:14 pm 12:14 Sunny 82 28 72 22 70 70 E 5 7 30.21 1023 10 16.0934 N/A
12:35 pm 12:35 Sunny 82 28 72 22 70 70 Calm 30.21 1023 10 16.0934 N/A
12:54 pm 12:54 Sunny 84 29 72 22 66 66 Calm 30.21 1023 10 16.0934 N/A
1:14 pm 13:14 Sunny 84 29 70 21 62 62 Calm 30.18 1022 10 16.0934 N/A
1:35 pm 13:35 Sunny 84 29 72 22 66 66 Calm 30.18 1022 10 16.0934 N/A
1:54 pm 13:54 Sunny 84 29 70 21 62 62 SSE 3 6 30.18 1022 10 16.0934 N/A
2:14 pm 14:14 Sunny 84 29 70 21 62 62 E 3 6 30.18 1022 10 16.0934 N/A
2:35 pm 14:35 Sunny 86 30 70 21 59 59 Calm 30.18 1022 10 16.0934 N/A
2:54 pm 14:54 Partly Cloudy 88 31 72 22 59 59 NNE 6 9 30.18 1022 10 16.0934 N/A
3:14 pm 15:14 Mostly Cloudy 86 30 70 21 59 59 ENE 5 7 30.15 1021 10 16.0934 N/A
3:35 pm 15:35 Sunny 86 30 70 21 59 59 E 5 7 30.15 1021 10 16.0934 N/A
3:54 pm 15:54 Sunny 86 30 72 22 62 62 E 3 6 30.15 1021 10 16.0934 N/A
4:14 pm 16:14 Sunny 86 30 70 21 59 59 Calm 30.15 1021 10 16.0934 N/A
4:34 pm 16:34 Sunny 88 31 70 21 55 55 Calm 30.15 1021 10 16.0934 N/A
4:54 pm 16:54 Sunny 88 31 70 21 55 55 Calm 30.15 1021 10 16.0934 N/A
5:15 pm 17:15 Partly Cloudy 88 31 70 21 55 55 E 3 6 30.15 1021 10 16.0934 N/A
5:34 pm 17:34 Sunny 88 31 70 21 55 55 Calm 30.15 1021 10 16.0934 N/A
5:54 pm 17:54 Sunny 84 29 72 22 66 66 NE 7 11 30.15 1021 10 16.0934 N/A
6:15 pm 18:15 Sunny 84 29 73 23 70 70 NE 7 11 30.15 1021 10 16.0934 N/A
6:34 pm 18:34 Sunny 84 29 72 22 66 66 NE 5 7 30.15 1021 10 16.0934 N/A
6:54 pm 18:54 Sunny 84 29 73 23 70 70 ENE 5 7 30.15 1021 10 16.0934 N/A
7:15 pm 19:15 Sunny 84 29 73 23 70 70 NE 5 7 30.15 1021 10 16.0934 N/A
7:34 pm 19:34 Sunny 82 28 73 23 74 74 ENE 6 9 30.15 1021 10 16.0934 N/A
7:54 pm 19:54 Sunny 79 26 72 22 79 79 ENE 5 7 30.15 1021 10 16.0934 N/A
8:15 pm 20:15 Sunny 75 24 72 22 89 89 E 5 7 30.15 1021 10 16.0934 N/A
8:34 pm 20:34 Clear 75 24 72 22 89 89 E 3 6 30.15 1021 10 16.0934 N/A
8:54 pm 20:54 Clear 75 24 72 22 89 89 ENE 3 6 30.15 1021 10 16.0934 N/A
9:14 pm 21:14 Clear 73 23 70 21 89 89 NE 3 6 30.15 1021 10 16.0934 N/A
9:34 pm 21:34 Clear 73 23 70 21 89 89 Calm 30.15 1021 10 16.0934 N/A
9:55 pm 21:55 Clear 72 22 70 21 94 94 E 5 7 30.18 1022 10 16.0934 N/A
10:14 pm 22:14 Clear 73 23 70 21 89 89 Calm 30.15 1021 10 16.0934 N/A
10:34 pm 22:34 Clear 72 22 70 21 94 94 E 3 6 30.18 1022 10 16.0934 N/A
10:55 pm 22:55 Clear 73 23 70 21 89 89 Calm 30.15 1021 10 16.0934 N/A
11:14 pm 23:14 Clear 73 23 70 21 89 89 Calm 30.15 1021 10 16.0934 N/A
11:35 pm 23:35 Clear 73 23 70 21 89 89 Calm 30.15 1021 10 16.0934 N/A
11:55 pm 23:55 Clear 72 22 70 21 94 94 Calm 30.18 1022 10 16.0934 N/A

Powered by AerisWeather